Regional Weather Roundup
Issued by NWS

Home | Current Version | Previous Version | Graphics & Text | Print | Product List | Glossary On
Versions: 1 2 3 4 5 6 7 8 9 10 11 12 13 14 15 16 17 18 19 20 21 22 23 24 25 26 27 28 29 30 31 32 33 34 35 36 37 38 39 40 41 42 43 44 45 46 47 48 49 50
000
ASUS43 KDTX 282101
RWRMI
MICHIGAN HOURLY REGIONAL WEATHER ROUNDUP
NATIONAL WEATHER SERVICE DETROIT/PONTIAC MI
500 PM EDT THU APR 28 2016

NOTE: "FAIR" INDICATES FEW OR NO CLOUDS BELOW 12,000 FEET WITH NO
SIGNIFICANT WEATHER AND/OR OBSTRUCTION TO VISIBILITY.

MIZ047>049-052>055-059>063-066>070-074>076-081>083-282200-
SOUTHEAST LOWER MICHIGAN

CITY           SKY/WX    TMP DP  RH WIND       PRES   REMARKS
ADRIAN         CLOUDY    47  35  63 E14G21    29.96F
ALMA           CLOUDY    43  37  80 NE8       30.02S
ANN ARBOR      CLOUDY    47  33  58 E10       29.97R
BAD AXE        CLOUDY    43  31  64 NE9       30.05S
CARO           CLOUDY    49  25  39 NE8       30.01S
DETROIT CITY   CLOUDY    48  32  53 NE7       29.98F
DETROIT        CLOUDY    48  33  56 E9G17     29.98S
FLINT          CLOUDY    50  30  46 E10       30.00R
GROSSE ILE     CLOUDY    46  36  66 E9        29.96S
HILLSDALE      CLOUDY    47  38  71 E10G17    29.93S
HOWELL         CLOUDY    47  32  56 E8        29.98R

CITY           SKY/WX    TMP DP  RH WIND       PRES   REMARKS
JACKSON        CLOUDY    44  38  79 NE9       29.96F
LAMBERTVILLE   CLOUDY    48  37  64 NE12G21   29.95F
LANSING        CLOUDY    43  39  86 NE8       29.99S
LAPEER         CLOUDY    47  26  43 E7        30.00S
MASON          CLOUDY    45  36  70 E8        29.97F
MONROE         CLOUDY    46  38  72 E9        29.96S
MT. CLEMENS    CLOUDY    50  31  48 NE7       29.98S
PONTIAC        CLOUDY    49  30  48 NE9       29.96F
PORT HOPE        N/A     40  35  83 NE17      30.04S WCI  31
PORT HURON     CLOUDY    46  32  57 N8        30.01R
TRI CITIES     LGT RAIN  45  36  70 NE20      30.02F
MIDLAND        LGT RAIN  41  36  84 NE7       30.03S
TROY           CLOUDY    50  30  46 E9        29.99F
SAGINAW HB     CLOUDY    46  32  57 NE13      30.01S
$$
MIZ043>046-050>051-056>058-064>065-071>073-077>080-282200-
SOUTHWEST LOWER MICHIGAN

CITY           SKY/WX    TMP DP  RH WIND       PRES   REMARKS
BATTLE CREEK   CLOUDY    47  38  71 E14       29.94F
BENTON HARBOR  CLOUDY    53  44  71 E14       29.90F
BIG RAPIDS     CLOUDY    42  33  71 E12       30.01F
COLDWATER      CLOUDY    50  40  66 E13G18    29.92F
FREMONT        DRIZZLE   41  37  87 E13       29.99F
HOLLAND        CLOUDY    44  39  82 E12       29.96S
GRAND RAPIDS   CLOUDY    43  39  86 NE13      29.97F
IONIA          LGT RAIN  40  36  85 NE10G18   29.98F WCI  34
KALAMAZOO      CLOUDY    50  39  66 E8        29.94S
LUDINGTON      CLOUDY    45  35  68 E14G20    30.01F
MARSHALL       CLOUDY    46  38  75 NE9       29.94F
MOUNT PLEASANT LGT RAIN  41  37  83 NE7       30.02S
MUSKEGON       CLOUDY    43  36  76 E17       29.98F
$$
MIZ016>042-282200-
NORTHERN LOWER MICHIGAN

CITY           SKY/WX    TMP DP  RH WIND       PRES   REMARKS
ALPENA         MOSUNNY   46  24  42 NE9       30.09F
BEAVER ISLAND  MOSUNNY   44  30  58 E13       30.08S
BELLAIRE       CLOUDY    55  23  29 SE3       30.02F
CADILLAC       DRIZZLE   42  31  66 E12G18    30.02S
CHARLEVOIX     CLOUDY    46  34  62 N6        30.07S
GAYLORD        CLOUDY    50  24  36 NE14      30.03S
GRAYLING       CLOUDY    51  23  33 E9        30.04S
HARBOR SPRINGS CLOUDY    51  29  42 E13       30.06S
HOUGHTON LAKE  CLOUDY    46  22  38 E8        30.04S
MANISTEE       CLOUDY    46  30  53 E8        30.03F
OSCODA         CLOUDY    40  31  69 NE12      30.08S WCI  34
PELLSTON       MOSUNNY   49  26  41 NE14      30.08S
ROGERS CITY    CLOUDY    42  24  49 E8        30.11F
TRAVERSE CITY  CLOUDY    54  25  32 E8        30.02S
$$
MIZ007>008-015-282200-
EASTERN UPPER MICHIGAN

CITY           SKY/WX    TMP DP  RH WIND       PRES   REMARKS
KINROSS          N/A     50  25  37 SE10      30.07F
MACKINAC ISLAN MOSUNNY   44  20  39 SE9       30.09F
NEWBERRY       SUNNY     51  27  39 S5        30.06S
S. S. MARIE    SUNNY     54  26  34 CALM      30.07S
MUNISING         N/A     40  30  67 NE18      30.09F WCI  31
$$
MIZ004>006-011>014-085-282200-
CENTRAL UPPER MICHIGAN

CITY           SKY/WX    TMP DP  RH WIND       PRES   REMARKS
MANISTIQUE     MOSUNNY   46  29  52 SE9       30.07S
ESCANABA       PTSUNNY   48  28  46 SE12      30.07S
MENOMINEE      CLOUDY    43  30  61 NE13      30.06S
$$
MIZ001>003-009>011-084-282200-
WESTERN UPPER MICHIGAN

CITY           SKY/WX    TMP DP  RH WIND       PRES   REMARKS
IRON MOUNTAIN  SUNNY     54  20  26 E5        30.02F
HOUGHTON       SUNNY     46  27  47 E13G20    30.11S
COPPER HARBOR    N/A     40  31  70 E6        30.14F
IRONWOOD       MOSUNNY   46  30  53 N9        30.03S
$$

ABBREVIATIONS USED IN REMARKS
   TC - TEMPERATURE IN CELSIUS
  WCI - WIND CHILL INDEX
   HX - HEAT INDEX
  VSB - VISIBILITY





USA.gov is the U.S. government's official web portal to all federal, state and local government web resources and services.